Location: Caualo
(45.5667°N, 10.8667°E)
Time: 02:30:36
(UTC+00:00)

Cosmos 2366 rocket - Pass Details

Date: 07 June 2020
Orbit: 955 x 997 km, 82.9° (Epoch: 06 July)

Event Time Altitude Azimuth Distance (km) Brightness Sun altitude
Exits shadow 02:17:30 - 185° (S) 3,143 6.2 -10.1°
Reaches altitude 10° 02:18:38 10° 185° (S) 2,716 5.9 -10.0°
Maximum altitude 02:24:53 88° 98° (E) 991 4.1 -9.2°
Drops below altitude 10° 02:31:15 10° 9° (N) 2,762 7.3 -8.5°
Sets 02:33:47 0° 9° (N) 3,719 8.0 -8.2°
